Regional Weather Roundup
Issued by NWS

Home | Current Version | Previous Version | Graphics & Text | Print | Product List | Glossary On
Versions: 1 2 3 4 5 6 7 8 9 10 11 12 13 14 15 16 17 18 19 20 21 22 23 24 25 26 27 28 29 30 31 32 33 34 35 36 37 38 39 40 41 42 43 44 45 46 47 48 49 50
000
ASUS43 KDMX 281807
RWRIA

WEATHER ROUNDUP FOR IOWA
NATIONAL WEATHER SERVICE DES MOINES IA
100 PM CDT TUE JUL 28 2015

NOTE: "FAIR" INDICATES FEW OR NO CLOUDS BELOW 12,000 FEET WITH NO
SIGNIFICANT WEATHER AND/OR OBSTRUCTIONS TO VISIBILITY.

* - THESE STATIONS ARE NOT NWS STATIONS...THUS NOT UNDER NWS
QUALITY CONTROL.  THEY ALSO DO NOT REPORT WEATHER SUCH
AS PRECIPITATION OR FOG.

IAZ001>003-012>014-020>022-031>034-043>046-281900-
   NORTHWEST IOWA

CITY           SKY/WX    TMP DP  RH WIND       PRES   REMARKS
CARROLL *      MOSUNNY   77  73  88 S14G22    29.88S
CHEROKEE *     CLOUDY    76  72  89 SW10      29.88R
DENISON *      RAIN      75  73  94 S8G16     29.85F
LE MARS *      CLOUDY    75  72  88 S12       29.88S
ORANGE CITY *  CLOUDY    75  70  83 SW10      29.88S
SHELDON *      CLOUDY    75  70  83 SW9G16    29.86S
SIOUX CITY     CLOUDY    77  70  79 VRB3      29.87F
6HR MIN TEMP:  69; 6HR MAX TEMP:  77; 6HR PCP: TRACE;

SPENCER        MOSUNNY   80  70  71 S10       29.86F HX  83
6HR MIN TEMP:  70; 6HR MAX TEMP:  80; 6HR PCP:  0.02;

STORM LAKE *   CLOUDY    75  72  88 SW12      29.90R
$$

IAZ055>058-069>071-079>083-090>094-281900-
   SOUTHWEST IOWA

CITY           SKY/WX    TMP DP  RH WIND       PRES   REMARKS
ATLANTIC *     SUNNY     82  73  74 S9        29.88R HX  88
AUDUBON *      SUNNY     82  75  78 S8        29.90R HX  89
CLARINDA *     SUNNY     86  79  79 SE12G18   29.87F HX  99
COUNCIL BLFS * SUNNY     84  77  79 S16       29.87S HX  94
CRESTON *      SUNNY     82  75  78 SE17      29.89S HX  89
HARLAN  *      PTSUNNY   82  82 100 S9        29.91S HX  97
LAMONI         PTSUNNY   86  78  77 E8        29.91F HX  98
6HR MIN TEMP:  73; 6HR MAX TEMP:  86;

RED OAK *      MOSUNNY   86  77  74 SE13      29.87R HX  97
SHENANDOAH *   SUNNY     88  79  74 SE14      29.86S HX 102
$$

IAZ047>049-059>061-072>074-084-281900-
   CENTRAL IOWA

CITY           SKY/WX    TMP DP  RH WIND       PRES   REMARKS
AMES           LGT RAIN  74  73  97 NE8G18    29.87R
6HR MIN TEMP:  71; 6HR MAX TEMP:  75; 6HR PCP:  0.40;

ANKENY *       SUNNY     81  75  83 SE17G25   29.83F HX  86
CHARITON *     SUNNY     82  77  83 SE12      29.91F HX  91
DES MOINES     CLOUDY    83  73  72 SE22G28   29.86F HX  89
6HR MIN TEMP:  75; 6HR MAX TEMP:  83; 6HR PCP:  0.01;

GRINNELL*      CLOUDY    73  70  88 E14       29.90F
KNOXVILLE *    MOSUNNY   81  75  83 SE13G24   29.89F HX  86
MARSHALLTOWN   CLOUDY    74  70  87 SE14      29.86F
6HR MIN TEMP:  72; 6HR MAX TEMP:  75; 6HR PCP:  0.68;

PELLA *        CLOUDY    79  76  91 SE14G20   29.90F HX  83
PERRY *        PTSUNNY   79  73  83 CALM      29.88R HX  82
$$

IAZ004>006-015-016-023>025-035-036-281900-
   NORTH CENTRAL IOWA

CITY           SKY/WX    TMP DP  RH WIND       PRES   REMARKS
ALGONA *       PTSUNNY   79  72  78 S8        29.86S HX  82
CLARION *      SUNNY     79  73  83 SE10      29.87R HX  82
ESTHERVILLE    MOSUNNY   79  71  76 S12       29.86S HX  82
6HR MIN TEMP:  67; 6HR MAX TEMP:  80; 6HR PCP:  0.12;

FORT DODGE *   CLOUDY    77  70  78 SE6       29.88R
MASON CITY     CLOUDY    76  73  91 SE15      29.87F
6HR MIN TEMP:  72; 6HR MAX TEMP:  76; 6HR PCP:  0.52;

FOREST CITY *  SUNNY     79  70  73 S12       29.86S HX  81
IOWA FALLS *   PTSUNNY   74  70  87 SE12G20   29.88F
$$

IAZ007>011-017>019-026>030-037>042-050>054-066-281900-
   NORTHEAST IOWA

CITY           SKY/WX    TMP DP  RH WIND       PRES   REMARKS
CEDAR RAPIDS   CLOUDY    70  70 100 SE9       29.95F
6HR MIN TEMP:  69; 6HR MAX TEMP:  79; 6HR PCP:  0.86;

CHARLES CITY * SUNNY     77  73  88 S13       29.89R
CLINTON *      CLOUDY    79  72  78 CALM      30.01S HX  82
DECORAH *      SUNNY     73  73 100 S8G16     29.89R
DUBUQUE        RAIN      74  71  91 SW7       30.00F FOG
6HR MIN TEMP:  70; 6HR MAX TEMP:  78; 6HR PCP:  0.20;

MONTICELLO *   LGT RAIN  73  72  94 SE9       29.95F
OELWEIN *        N/A     72  70  94 S15G22    29.85F
WATERLOO       CLOUDY    73  69  87 S15G23    29.86F
6HR MIN TEMP:  70; 6HR MAX TEMP:  75; 6HR PCP:  0.75;

$$

IAZ064-065-067-068-078-281900-
   EAST CENTRAL IOWA

CITY           SKY/WX    TMP DP  RH WIND       PRES   REMARKS
DAVENPORT      LGT RAIN  74  71  91 W9        30.00R FOG
6HR MIN TEMP:  73; 6HR MAX TEMP:  82; 6HR PCP:  0.71;

IOWA CITY      CLOUDY    71  70  96 E5        29.97F
6HR MIN TEMP:  71; 6HR MAX TEMP:  81; 6HR PCP:  0.53;

MT. PLEASANT * CLOUDY    91  74  56 CALM      29.95F HX 100
MUSCATINE *    LGT RAIN  75  70  83 NE13      29.98R
QUAD CITIES    CLOUDY    83  75  77 SE7       29.97F HX  90
6HR MIN TEMP:  72; 6HR MAX TEMP:  83; 6HR PCP:  0.22;

$$

IAZ062-063-075>077-085>089-095>099-281900-
   SOUTHEAST IOWA

CITY           SKY/WX    TMP DP  RH WIND       PRES   REMARKS
BURLINGTON     MOSUNNY   87  79  76 CALM      29.96S HX 101
6HR MIN TEMP:  74; 6HR MAX TEMP:  88;

FAIRFIELD *    MOSUNNY   81  73  78 NE13      29.96F HX  85
FORT MADISON * SUNNY     88  79  74 CALM      29.97S HX 102
KEOKUK *       SUNNY     90  79  70 VRB5      29.94F HX 105
OSKALOOSA *      N/A     80  73  80 E9        29.94F HX  84
CENTERVILLE *  SUNNY     84  79  84 NE8       29.95F HX  96
OTTUMWA        CLOUDY    81  76  84 E15       29.93F HX  87
6HR MIN TEMP:  72; 6HR MAX TEMP:  83;

WASHINGTON *   SUNNY     75  73  94 E8        29.98F
$$

ABBREVIATIONS USED IN REMARKS
   TC - TEMPERATURES IN CELSIUS
  WCI - WIND CHILL INDEX
   HX - HEAT INDEX
  VSB - VISIBILITY
$$



USA.gov is the U.S. government's official web portal to all federal, state and local government web resources and services.